User: anonymous   Login
Location: Unspecified
(0.0000°N, 0.0000°E)
Time: 10:52:40
(UTC+00:00)
Language:

SAR-Lupe-5 - Orbit

View from above orbital plane
View from above orbital plane
View from above satellite
View from above satellite

Ground track
Ground track

The orbit data is extracted from the following two-line orbital elements,

1 33244U 08036A   18251.84510591 0.00000500  00000-0  18602-4 0    02
2 33244  98.1492 118.0557 0003045  33.6121 326.3878 15.27531350    05
Epoch (UTC): 08 September 2018 20:16:57
Eccentricity: 0.0003045
inclination: 98.1492°
perigee height: 481 km
apogee height: 485 km
right ascension of ascending node: 118.0557°
argument of perigee: 33.6121°
revolutions per day: 15.27531350
mean anomaly at epoch: 326.3878°
orbit number at epoch: 0

The dashed part of the orbit path shows where the satellite is in the earth's shadow,  

DLR